Lancaster, OH

12:30 AM EDT on March 25, 2017 (GMT -0400)
Fairfield County

Weather History for KLHQ - September, 2011

Change the Weather History Date:

Saturday, September 24, 2011

  Actual Average Record
Temperature  
Mean Temperature 58 °F -  
Max Temperature 69 °F 70 °F 91 °F (2007)
Min Temperature 48 °F 46 °F 32 °F (1983)
Degree Days  
Heating Degree Days 7    
Growing Degree Days 8 (Base 50)    
Moisture  
Dew Point 51 °F    
Average Humidity 87    
Maximum Humidity 100    
Minimum Humidity 52    
Precipitation  
Precipitation 0.01 in - - ()
Sea Level Pressure  
Sea Level Pressure 30.06 in    
Wind  
Wind Speed 2 mph (SE)    
Max Wind Speed 9 mph    
Max Gust Speed -    
Visibility 6 miles    
Events Fog    
Averages and records for this station are not official NWS values.
T = Trace of Precipitation, MM = Missing Value Source: NWS Daily Summary

Daily Weather History Graph

Daily Weather History Graph

Search for Another Location

Airport or City:

Trip Planner

Search our weather history database for the weather conditions in past years. The results will help you decide how hot, cold, wet, or windy it might be!

Date:

Astronomy

Sep. 24, 2011 Rise Set
Actual Time 7:19 AM EDT 7:24 PM EDT
Civil Twilight 6:52 AM EDT 7:51 PM EDT
Nautical Twilight 6:21 AM EDT 8:23 PM EDT
Astronomical Twilight 5:49 AM EDT 8:55 PM EDT
Moon 3:54 AM EDT (9/24) 5:30 PM EDT (9/24)
Length of Visible Light 12h 58m
Length of Day
12h 05m
Waning Crescent, 11% of the Moon is Illuminated
Sep 24
Waning Crescent
Sep 27
New
Oct 3
First Quarter
Oct 11
Full
Oct 19
Last Quarter

Hourly Weather History & Observations

Time (EDT) Temp. Dew Point Humidity Pressure Visibility Wind Dir Wind Speed Gust Speed Precip Events Conditions
12:53 AM 51.1 °F 51.1 °F 100% 30.04 in 0.2 mi Calm Calm - N/A Fog Fog
1:53 AM 51.1 °F 51.1 °F 100% 30.04 in 0.2 mi Calm Calm - N/A Fog Fog
2:53 AM 52.0 °F 52.0 °F 100% 30.04 in 0.2 mi South 3.5 mph - N/A Fog Fog
3:53 AM 52.0 °F 52.0 °F 100% 30.04 in 0.2 mi Calm Calm - N/A Fog Fog
4:27 AM 53.6 °F 51.8 °F 94% 30.04 in 1.2 mi Calm Calm - N/A   Overcast
4:42 AM 53.6 °F 51.8 °F 94% 30.05 in 3.0 mi Calm Calm - N/A   Overcast
4:53 AM 52.0 °F 52.0 °F 100% 30.04 in 6.0 mi SE 5.8 mph - N/A   Overcast
5:10 AM 53.6 °F 51.8 °F 94% 30.04 in 7.0 mi SSE 4.6 mph - N/A   Overcast
6:24 AM 51.8 °F 51.8 °F 100% 30.06 in 7.0 mi Calm Calm - N/A   Overcast
6:53 AM 50.0 °F 48.9 °F 96% 30.06 in 5.0 mi Calm Calm - N/A   Mostly Cloudy
7:26 AM 48.2 °F 48.2 °F 100% 30.06 in 2.0 mi Calm Calm - N/A   Overcast
7:30 AM 48.2 °F 48.2 °F 100% 30.06 in 1.0 mi Calm Calm - N/A   Mostly Cloudy
7:37 AM 48.2 °F 48.2 °F 100% 30.06 in 0.5 mi Calm Calm - N/A Fog Fog
7:49 AM 48.2 °F 48.2 °F 100% 30.06 in 0.2 mi Calm Calm - N/A Fog Fog
7:53 AM 48.9 °F 48.0 °F 97% 30.06 in 0.5 mi Calm Calm - N/A Fog Fog
7:57 AM 48.2 °F 48.2 °F 100% 30.06 in 1.2 mi Calm Calm - N/A   Partly Cloudy
8:04 AM 50.0 °F 48.2 °F 94% 30.06 in 2.5 mi Calm Calm - N/A   Partly Cloudy
8:23 AM 51.8 °F 50.0 °F 94% 30.07 in 3.0 mi Calm Calm - N/A   Clear
8:46 AM 53.6 °F 51.8 °F 94% 30.08 in 5.0 mi Calm Calm - N/A   Mostly Cloudy
8:53 AM 53.1 °F 51.1 °F 93% 30.09 in 5.0 mi Calm Calm - 0.01 in   Mostly Cloudy
9:11 AM 53.6 °F 51.8 °F 94% 30.08 in 6.0 mi Calm Calm - N/A   Overcast
9:53 AM 55.0 °F 52.0 °F 89% 30.10 in 9.0 mi ESE 9.2 mph - N/A   Overcast
10:53 AM 59.0 °F 54.0 °F 83% 30.10 in 10.0 mi ESE 4.6 mph - N/A   Mostly Cloudy
11:08 AM 60.8 °F 53.6 °F 77% 30.10 in 10.0 mi Variable 4.6 mph - N/A   Scattered Clouds
11:26 AM 60.8 °F 53.6 °F 77% 30.10 in 10.0 mi SE 5.8 mph - N/A   Mostly Cloudy
11:33 AM 60.8 °F 53.6 °F 77% 30.10 in 10.0 mi SE 4.6 mph - N/A   Scattered Clouds
11:53 AM 62.1 °F 54.0 °F 75% 30.09 in 10.0 mi Calm Calm - N/A   Partly Cloudy
12:53 PM 64.9 °F 53.1 °F 65% 30.07 in 10.0 mi SE 8.1 mph - N/A   Partly Cloudy
1:53 PM 66.0 °F 52.0 °F 60% 30.06 in 10.0 mi ESE 8.1 mph - N/A   Partly Cloudy
2:53 PM 68.0 °F 50.0 °F 52% 30.03 in 10.0 mi SE 8.1 mph - N/A   Scattered Clouds
3:53 PM 68.0 °F 50.0 °F 52% 30.03 in 10.0 mi South 5.8 mph - N/A   Clear
4:53 PM 68.0 °F 51.1 °F 55% 30.02 in 10.0 mi SE 3.5 mph - N/A   Partly Cloudy
5:53 PM 68.0 °F 52.0 °F 56% 30.02 in 10.0 mi SSE 4.6 mph - N/A   Scattered Clouds
7:53 PM 59.0 °F 54.0 °F 83% 30.03 in 10.0 mi Calm Calm - N/A   Clear
8:53 PM 57.9 °F 54.0 °F 87% 30.04 in 10.0 mi Calm Calm - N/A   Clear
9:53 PM 55.9 °F 54.0 °F 93% 30.04 in 10.0 mi Calm Calm - N/A   Clear
10:53 PM 54.0 °F 52.0 °F 93% 30.05 in 9.0 mi Calm Calm - N/A   Clear